CHINASAT 16 (SJ-13) (42662 NORAD) Tracking and Keplerian Element Data

This shows tracking and keplerian element data for the satellite.

Feedback or suggestion? Click here.




ElementValue
Catalog42662
NameCHINASAT 16 (SJ-13)
Epoch Orbit1644
Epoch Day268.92417676
Epoch Year2021
RAAN90.9237
Inclination0.0149
Eccentricity0.000664
Argument of Perigee134.9871
Mean Anonmoly222.2528
Mean Motion1.00274416
Decay Rate-3.55E-06
L11 42662U 17018A 21268.92417676 -.00000355 00000-0 00000-0 0 9992
L22 42662 0.0149 90.9237 0006640 134.9871 222.2528 1.00274416 16448

Live tracking and technical data element details for CHINASAT 16 (SJ-13) (NORAD 42662). CHINASAT 16 (SJ-13) can be tracked NOW for your location showing map with azimuth and elevation plus other details from your city location.

Track the satellite on the map from your city or location and see movement details for azimuth, elevation, latitude, longitude, range, height, and movement on the map or in text.







IsCatalogInMostPopularTable: catalog: 42662, numindb: 553
Update: records affected: 1



GetName: 42662 CHINASAT 16 (SJ-13)

Hit Count: updated at: Mon, 27 Sep 2021 00:33:16 GMT